• In Czech Republic
  • List of Countries
  • For 7 days
  • Water Temperature
  • Satellite Maps
  • Weather Map
  • Weather Widgets
  • user-avatar
    Login

    Hourly Weather Lesozavod

    Today, 17 October, Wednesday

    Time Temperature Precipitation Wind Pressure Humidity
    00:00 +8°C° 0 mm 3 mps 748 mmHg 91%
    01:00 +8°C° 0 mm 3 mps 747 mmHg 91%
    02:00 +7°C° 0 mm 3 mps 747 mmHg 92%
    03:00 +7°C° 0 mm 3 mps 747 mmHg 93%
    04:00 +7°C° 0 mm 3 mps 747 mmHg 93%
    05:00 +5°C° 0 mm 3 mps 746 mmHg 93%
    06:00 +5°C° 0 mm 4 mps 746 mmHg 93%
    07:00 +6°C° 0 mm 4 mps 746 mmHg 88%
    08:00 +7°C° 0 mm 5 mps 746 mmHg 83%
    09:00 +9°C° 0 mm 5 mps 745 mmHg 77%
    10:00 +9°C° 0 mm 6 mps 746 mmHg 75%
    11:00 +10°C° 0 mm 6 mps 746 mmHg 73%
    12:00 +11°C° 0 mm 7 mps 746 mmHg 71%
    13:00 +10°C° 0 mm 7 mps 746 mmHg 73%
    14:00 +10°C° 0 mm 6 mps 746 mmHg 75%
    15:00 +9°C° 0 mm 6 mps 747 mmHg 77%
    16:00 +9°C° 0 mm 6 mps 748 mmHg 75%
    17:00 +9°C° 0 mm 6 mps 748 mmHg 72%
    18:00 +8°C° 0 mm 5 mps 749 mmHg 70%
    19:00 +7°C° 0 mm 5 mps 749 mmHg 72%
    20:00 +6°C° 0 mm 4 mps 750 mmHg 74%
    21:00 +5°C° 0 mm 4 mps 750 mmHg 77%
    22:00 +4°C° 0 mm 3 mps 751 mmHg 78%
    23:00 +4°C° 0 mm 3 mps 751 mmHg 80%

    Tomorrow, 18 October, Thursday

    Time Temperature Precipitation Wind Pressure Humidity
    00:00 +3°C° 0 mm 3 mps 751 mmHg 82%
    01:00 +4°C° 0 mm 2 mps 752 mmHg 84%
    02:00 +3°C° 0 mm 2 mps 752 mmHg 85%
    03:00 +3°C° 0 mm 2 mps 752 mmHg 87%
    04:00 +3°C° 0 mm 2 mps 752 mmHg 87%
    05:00 +2°C° 0 mm 2 mps 752 mmHg 88%
    06:00 +2°C° 0 mm 2 mps 752 mmHg 89%
    07:00 +3°C° 0 mm 2 mps 752 mmHg 83%
    08:00 +4°C° 0 mm 2 mps 753 mmHg 78%
    09:00 +5°C° 0 mm 3 mps 753 mmHg 73%
    10:00 +7°C° 0 mm 3 mps 753 mmHg 67%
    11:00 +8°C° 0 mm 3 mps 752 mmHg 62%
    12:00 +9°C° 0 mm 3 mps 752 mmHg 56%
    13:00 +9°C° 0 mm 3 mps 752 mmHg 56%
    14:00 +9°C° 0 mm 3 mps 752 mmHg 56%
    15:00 +9°C° 0 mm 3 mps 751 mmHg 57%
    16:00 +8°C° 0 mm 3 mps 751 mmHg 61%
    17:00 +7°C° 0 mm 3 mps 751 mmHg 66%
    18:00 +5°C° 0 mm 3 mps 750 mmHg 71%
    19:00 +5°C° 0 mm 3 mps 750 mmHg 73%
    20:00 +5°C° 0 mm 3 mps 750 mmHg 74%
    21:00 +5°C° 0 mm 3 mps 750 mmHg 75%
    22:00 +5°C° 0 mm 3 mps 749 mmHg 77%
    23:00 +5°C° 0 mm 3 mps 749 mmHg 79%

    Day after tomorrow, 19 October, Friday

    Time Temperature Precipitation Wind Pressure Humidity
    00:00 +5°C° 0 mm 3 mps 749 mmHg 80%
    01:00 +5°C° 0 mm 3 mps 749 mmHg 83%
    02:00 +5°C° 0 mm 3 mps 748 mmHg 86%
    03:00 +4°C° 0 mm 4 mps 748 mmHg 89%
    04:00 +4°C° 0 mm 4 mps 748 mmHg 90%
    05:00 +4°C° 0 mm 4 mps 748 mmHg 92%
    06:00 +4°C° 0 mm 4 mps 747 mmHg 94%
    07:00 +5°C° 0 mm 4 mps 747 mmHg 91%
    08:00 +6°C° 0 mm 4 mps 747 mmHg 88%
    09:00 +8°C° 0 mm 5 mps 747 mmHg 85%
    10:00 +9°C° 0 mm 5 mps 747 mmHg 79%
    11:00 +10°C° 0 mm 5 mps 747 mmHg 74%
    12:00 +13°C° 0 mm 5 mps 747 mmHg 69%
    13:00 +13°C° 0 mm 5 mps 746 mmHg 68%
    14:00 +13°C° 0 mm 5 mps 746 mmHg 68%
    15:00 +13°C° 0 mm 5 mps 746 mmHg 67%
    16:00 +12°C° 0 mm 4 mps 746 mmHg 72%
    17:00 +11°C° 0 mm 4 mps 746 mmHg 76%
    18:00 +11°C° 0 mm 4 mps 745 mmHg 81%
    19:00 +10°C° 0 mm 4 mps 745 mmHg 81%
    20:00 +10°C° 0 mm 4 mps 745 mmHg 81%
    21:00 +10°C° 0 mm 4 mps 745 mmHg 82%
    22:00 +10°C° 0 mm 4 mps 745 mmHg 83%
    23:00 +8°C° 0 mm 4 mps 745 mmHg 84%

    20 October, Saturday

    Time Temperature Precipitation Wind Pressure Humidity
    00:00 +8°C° 0 mm 4 mps 745 mmHg 85%
    01:00 +8°C° 0 mm 4 mps 744 mmHg 86%
    02:00 +7°C° 0 mm 4 mps 744 mmHg 86%
    03:00 +7°C° 0 mm 4 mps 744 mmHg 87%
    04:00 +7°C° 0 mm 4 mps 744 mmHg 87%
    05:00 +7°C° 0 mm 4 mps 743 mmHg 87%
    06:00 +7°C° 0 mm 4 mps 743 mmHg 87%
    07:00 +8°C° 0 mm 5 mps 743 mmHg 84%
    08:00 +8°C° 0 mm 5 mps 743 mmHg 81%
    09:00 +9°C° 0 mm 5 mps 743 mmHg 78%
    10:00 +9°C° 0.2 mm 5 mps 743 mmHg 80%
    11:00 +9°C° 0.2 mm 5 mps 743 mmHg 82%
    12:00 +9°C° 0.2 mm 5 mps 743 mmHg 83%
    13:00 +10°C° 0.2 mm 4 mps 743 mmHg 81%
    14:00 +10°C° 0.2 mm 4 mps 744 mmHg 80%
    15:00 +10°C° 0.2 mm 4 mps 744 mmHg 78%
    16:00 +8°C° 0 mm 4 mps 744 mmHg 78%
    17:00 +7°C° 0 mm 4 mps 744 mmHg 79%
    18:00 +7°C° 0 mm 3 mps 745 mmHg 80%
    19:00 +5°C° 0 mm 3 mps 745 mmHg 80%
    20:00 +5°C° 0 mm 3 mps 745 mmHg 80%
    21:00 +4°C° 0 mm 3 mps 746 mmHg 81%
    22:00 +4°C° 0 mm 3 mps 746 mmHg 83%
    23:00 +4°C° 0 mm 3 mps 746 mmHg 85%

    21 October, Sunday

    Time Temperature Precipitation Wind Pressure Humidity
    00:00 +3°C° 0 mm 3 mps 746 mmHg 87%
    01:00 +4°C° 0 mm 2 mps 746 mmHg 89%
    02:00 +4°C° 0 mm 2 mps 747 mmHg 91%
    03:00 +3°C° 0 mm 2 mps 747 mmHg 93%
    04:00 +3°C° 0 mm 2 mps 747 mmHg 93%
    05:00 +3°C° 0 mm 2 mps 748 mmHg 94%
    06:00 +3°C° 0 mm 2 mps 748 mmHg 94%
    07:00 +4°C° 0 mm 2 mps 748 mmHg 91%
    08:00 +3°C° 0 mm 3 mps 749 mmHg 88%
    09:00 +4°C° 0 mm 3 mps 749 mmHg 85%
    10:00 +5°C° 0 mm 3 mps 749 mmHg 82%
    11:00 +5°C° 0 mm 3 mps 749 mmHg 78%
    12:00 +7°C° 0 mm 3 mps 750 mmHg 75%
    13:00 +7°C° 0 mm 3 mps 750 mmHg 74%
    14:00 +7°C° 0 mm 3 mps 750 mmHg 72%
    15:00 +5°C° 0 mm 3 mps 750 mmHg 71%
    16:00 +5°C° 0 mm 3 mps 750 mmHg 72%
    17:00 +4°C° 0 mm 3 mps 751 mmHg 74%
    18:00 +4°C° 0 mm 3 mps 751 mmHg 75%
    19:00 +4°C° 0 mm 2 mps 751 mmHg 77%
    20:00 +4°C° 0 mm 2 mps 751 mmHg 78%
    21:00 +3°C° 0 mm 2 mps 751 mmHg 80%
    22:00 +3°C° 0 mm 2 mps 752 mmHg 82%
    23:00 +3°C° 0 mm 2 mps 752 mmHg 83%

    22 October, Monday

    Time Temperature Precipitation Wind Pressure Humidity
    00:00 +3°C° 0 mm 1 mps 752 mmHg 84%
    01:00 +3°C° 0 mm 1 mps 752 mmHg 86%
    02:00 +3°C° 0 mm 1 mps 753 mmHg 87%
    03:00 +2°C° 0 mm 1 mps 753 mmHg 89%
    04:00 +2°C° 0 mm 1 mps 753 mmHg 89%
    05:00 +2°C° 0 mm 1 mps 753 mmHg 90%
    06:00 +1°C° 0 mm 1 mps 753 mmHg 91%
    07:00 +2°C° 0 mm 1 mps 753 mmHg 85%
    08:00 +3°C° 0 mm 1 mps 754 mmHg 80%
    09:00 +4°C° 0 mm 1 mps 754 mmHg 75%
    10:00 +5°C° 0 mm 1 mps 754 mmHg 70%
    11:00 +6°C° 0 mm 1 mps 754 mmHg 65%
    12:00 +6°C° 0 mm 2 mps 754 mmHg 60%
    13:00 +6°C° 0 mm 2 mps 753 mmHg 60%
    14:00 +6°C° 0 mm 2 mps 753 mmHg 61%
    15:00 +7°C° 0 mm 3 mps 752 mmHg 61%
    16:00 +6°C° 0 mm 2 mps 752 mmHg 65%
    17:00 +5°C° 0 mm 2 mps 752 mmHg 70%
    18:00 +4°C° 0 mm 2 mps 752 mmHg 74%
    19:00 +3°C° 0 mm 3 mps 752 mmHg 75%
    20:00 +2°C° 0 mm 3 mps 751 mmHg 76%
    21:00 +2°C° 0 mm 3 mps 751 mmHg 77%
    22:00 +2°C° 0 mm 3 mps 751 mmHg 78%
    23:00 +1°C° 0 mm 4 mps 751 mmHg 78%
    Show more